When you browse on this site, cookies collect data to enhance your experience and personalize the content and advertising you see.
Visit our Privacy Policy to learn more. By continuing to use the site, you agree to this use of cookies and data.
  • In Hungary
  • List of Countries
  • For 7 days
  • Water Temperature
  • Satellite Maps
  • Weather Map
  • News
  • Weather Widgets
  • user-avatar
    Login

    Hourly Weather Czerlejewo

    Today, 18 January, Friday

    Time Temperature Precipitation Wind Pressure Humidity
    00:00 +2°C° 0 mm 7 mps 744 mmHg 77%
    01:00 0°C° 0 mm 7 mps 744 mmHg 77%
    02:00 0°C° 0.1 mm 7 mps 745 mmHg 76%
    03:00 0°C° 0.1 mm 7 mps 745 mmHg 75%
    04:00 -1°C° 0.1 mm 7 mps 746 mmHg 74%
    05:00 -1°C° 0.2 mm 7 mps 747 mmHg 74%
    06:00 -2°C° 0.2 mm 7 mps 748 mmHg 74%
    07:00 -3°C° 0.2 mm 6 mps 748 mmHg 74%
    08:00 -3°C° 0 mm 6 mps 750 mmHg 74%
    09:00 -3°C° 0 mm 6 mps 751 mmHg 73%
    10:00 -3°C° 0 mm 6 mps 752 mmHg 73%
    11:00 -3°C° 0 mm 6 mps 753 mmHg 71%
    12:00 -3°C° 0 mm 6 mps 753 mmHg 68%
    13:00 -1°C° 0 mm 5 mps 754 mmHg 66%
    14:00 -2°C° 0 mm 5 mps 755 mmHg 67%
    15:00 -2°C° 0 mm 4 mps 755 mmHg 68%
    16:00 -1°C° 0 mm 3 mps 756 mmHg 69%
    17:00 -2°C° 0 mm 3 mps 756 mmHg 73%
    18:00 -2°C° 0 mm 3 mps 756 mmHg 76%
    19:00 -2°C° 0 mm 3 mps 756 mmHg 79%
    20:00 -2°C° 0 mm 3 mps 757 mmHg 77%
    21:00 -3°C° 0 mm 4 mps 757 mmHg 75%
    22:00 -3°C° 0 mm 4 mps 757 mmHg 73%
    23:00 -3°C° 0 mm 4 mps 757 mmHg 74%

    Tomorrow, 19 January, Saturday

    Time Temperature Precipitation Wind Pressure Humidity
    00:00 -3°C° 0 mm 4 mps 758 mmHg 74%
    01:00 -2°C° 0 mm 3 mps 758 mmHg 74%
    02:00 -2°C° 0 mm 3 mps 758 mmHg 76%
    03:00 -2°C° 0 mm 3 mps 758 mmHg 78%
    04:00 -4°C° 0 mm 3 mps 758 mmHg 79%
    05:00 -4°C° 0 mm 3 mps 758 mmHg 80%
    06:00 -3°C° 0 mm 2 mps 758 mmHg 81%
    07:00 -3°C° 0 mm 2 mps 758 mmHg 82%
    08:00 -2°C° 0 mm 2 mps 758 mmHg 80%
    09:00 0°C° 0 mm 1 mps 758 mmHg 77%
    10:00 +1°C° 0 mm 1 mps 759 mmHg 74%
    11:00 +1°C° 0 mm 1 mps 758 mmHg 70%
    12:00 +2°C° 0 mm 1 mps 758 mmHg 66%
    13:00 +3°C° 0 mm 1 mps 758 mmHg 63%
    14:00 +2°C° 0 mm 1 mps 758 mmHg 66%
    15:00 +2°C° 0 mm 1 mps 757 mmHg 68%
    16:00 +1°C° 0 mm 1 mps 757 mmHg 71%
    17:00 +1°C° 0 mm 1 mps 757 mmHg 73%
    18:00 -2°C° 0 mm 2 mps 757 mmHg 75%
    19:00 -2°C° 0 mm 2 mps 757 mmHg 76%
    20:00 -2°C° 0 mm 2 mps 757 mmHg 75%
    21:00 -2°C° 0 mm 2 mps 757 mmHg 74%
    22:00 -2°C° 0 mm 2 mps 757 mmHg 73%
    23:00 -3°C° 0 mm 2 mps 756 mmHg 71%

    Day after tomorrow, 20 January, Sunday

    Time Temperature Precipitation Wind Pressure Humidity
    00:00 -3°C° 0 mm 2 mps 756 mmHg 69%
    01:00 -3°C° 0 mm 2 mps 756 mmHg 66%
    02:00 -3°C° 0 mm 2 mps 756 mmHg 66%
    03:00 -3°C° 0 mm 2 mps 755 mmHg 65%
    04:00 -3°C° 0 mm 2 mps 755 mmHg 65%
    05:00 -1°C° 0 mm 1 mps 755 mmHg 65%
    06:00 -1°C° 0 mm 1 mps 755 mmHg 65%
    07:00 -2°C° 0 mm 1 mps 755 mmHg 65%
    08:00 -1°C° 0 mm 1 mps 755 mmHg 63%
    09:00 -1°C° 0 mm 1 mps 755 mmHg 61%
    10:00 0°C° 0 mm 1 mps 756 mmHg 59%
    11:00 +1°C° 0 mm 1 mps 756 mmHg 57%
    12:00 0°C° 0 mm 0 mps 756 mmHg 55%
    13:00 +1°C° 0 mm 0 mps 756 mmHg 52%
    14:00 0°C° 0 mm 0 mps 756 mmHg 56%
    15:00 +1°C° 0 mm 1 mps 756 mmHg 59%
    16:00 0°C° 0 mm 1 mps 756 mmHg 62%
    17:00 0°C° 0 mm 1 mps 756 mmHg 64%
    18:00 -1°C° 0 mm 1 mps 757 mmHg 65%
    19:00 -1°C° 0 mm 1 mps 757 mmHg 67%
    20:00 -1°C° 0 mm 1 mps 757 mmHg 67%
    21:00 -1°C° 0 mm 1 mps 758 mmHg 68%
    22:00 -2°C° 0 mm 0 mps 758 mmHg 68%
    23:00 -2°C° 0 mm 1 mps 758 mmHg 68%

    21 January, Monday

    Time Temperature Precipitation Wind Pressure Humidity
    00:00 -2°C° 0 mm 1 mps 759 mmHg 69%
    01:00 -2°C° 0 mm 1 mps 759 mmHg 69%
    02:00 -2°C° 0 mm 1 mps 759 mmHg 70%
    03:00 -2°C° 0 mm 1 mps 759 mmHg 71%
    04:00 -2°C° 0 mm 1 mps 759 mmHg 72%
    05:00 -2°C° 0 mm 1 mps 759 mmHg 73%
    06:00 -2°C° 0 mm 1 mps 760 mmHg 74%
    07:00 -2°C° 0 mm 1 mps 760 mmHg 75%
    08:00 -2°C° 0 mm 1 mps 760 mmHg 73%
    09:00 -1°C° 0 mm 1 mps 760 mmHg 70%
    10:00 -1°C° 0 mm 1 mps 761 mmHg 67%
    11:00 0°C° 0 mm 1 mps 760 mmHg 64%
    12:00 +1°C° 0 mm 1 mps 760 mmHg 60%
    13:00 +2°C° 0 mm 1 mps 760 mmHg 57%
    14:00 +1°C° 0 mm 1 mps 760 mmHg 59%
    15:00 +1°C° 0 mm 1 mps 760 mmHg 61%
    16:00 0°C° 0 mm 1 mps 759 mmHg 63%
    17:00 0°C° 0 mm 1 mps 759 mmHg 63%
    18:00 -3°C° 0 mm 2 mps 759 mmHg 63%
    19:00 -3°C° 0 mm 2 mps 759 mmHg 64%
    20:00 -3°C° 0 mm 2 mps 759 mmHg 63%
    21:00 -3°C° 0 mm 2 mps 759 mmHg 62%
    22:00 -3°C° 0 mm 2 mps 758 mmHg 61%
    23:00 -3°C° 0 mm 2 mps 758 mmHg 61%

    22 January, Tuesday

    Time Temperature Precipitation Wind Pressure Humidity
    00:00 -3°C° 0 mm 2 mps 758 mmHg 62%
    01:00 -3°C° 0 mm 2 mps 757 mmHg 63%
    02:00 -3°C° 0 mm 2 mps 757 mmHg 62%
    03:00 -4°C° 0 mm 2 mps 756 mmHg 62%
    04:00 -2°C° 0 mm 1 mps 756 mmHg 61%
    05:00 -2°C° 0 mm 1 mps 755 mmHg 61%
    06:00 -2°C° 0 mm 1 mps 755 mmHg 61%
    07:00 -2°C° 0 mm 1 mps 755 mmHg 61%
    08:00 -4°C° 0 mm 2 mps 755 mmHg 59%
    09:00 -3°C° 0 mm 2 mps 754 mmHg 57%
    10:00 -2°C° 0 mm 2 mps 754 mmHg 55%
    11:00 -2°C° 0 mm 2 mps 754 mmHg 53%
    12:00 -1°C° 0 mm 2 mps 753 mmHg 50%
    13:00 +1°C° 0 mm 2 mps 753 mmHg 48%
    14:00 -1°C° 0 mm 2 mps 752 mmHg 50%
    15:00 -1°C° 0 mm 2 mps 752 mmHg 53%
    16:00 -2°C° 0 mm 3 mps 752 mmHg 55%
    17:00 -2°C° 0 mm 3 mps 751 mmHg 56%
    18:00 -2°C° 0 mm 3 mps 751 mmHg 56%
    19:00 -4°C° 0 mm 4 mps 751 mmHg 56%
    20:00 -4°C° 0 mm 4 mps 751 mmHg 60%
    21:00 -4°C° 0 mm 4 mps 750 mmHg 65%
    22:00 -4°C° 0 mm 4 mps 750 mmHg 69%
    23:00 -4°C° 0 mm 4 mps 750 mmHg 68%

    23 January, Wednesday

    Time Temperature Precipitation Wind Pressure Humidity
    00:00 -4°C° 0 mm 4 mps 750 mmHg 67%
    01:00 -4°C° 0 mm 4 mps 749 mmHg 67%
    02:00 -5°C° 0 mm 4 mps 749 mmHg 67%
    03:00 -5°C° 0 mm 4 mps 748 mmHg 66%
    04:00 -5°C° 0 mm 4 mps 748 mmHg 66%
    05:00 -5°C° 0 mm 4 mps 748 mmHg 69%
    06:00 -5°C° 0 mm 4 mps 748 mmHg 72%
    07:00 -5°C° 0 mm 4 mps 747 mmHg 74%
    08:00 -6°C° 0 mm 5 mps 747 mmHg 72%
    09:00 -5°C° 0 mm 5 mps 748 mmHg 69%
    10:00 -5°C° 0 mm 5 mps 748 mmHg 66%
    11:00 -4°C° 0 mm 5 mps 747 mmHg 63%
    12:00 -4°C° 0 mm 5 mps 747 mmHg 60%
    13:00 -2°C° 0 mm 5 mps 747 mmHg 56%
    14:00 -2°C° 0 mm 5 mps 747 mmHg 58%
    15:00 -3°C° 0 mm 4 mps 747 mmHg 59%
    16:00 -3°C° 0 mm 4 mps 747 mmHg 60%
    17:00 -3°C° 0 mm 4 mps 747 mmHg 62%
    18:00 -4°C° 0 mm 4 mps 747 mmHg 64%
    19:00 -4°C° 0 mm 4 mps 748 mmHg 66%
    20:00 -4°C° 0 mm 4 mps 748 mmHg 69%
    21:00 -4°C° 0 mm 4 mps 748 mmHg 71%
    22:00 -5°C° 0 mm 4 mps 748 mmHg 73%
    23:00 -5°C° 0 mm 4 mps 748 mmHg 75%
    Show more